This is the latest recevied weather packets stored in our database for station/object HP3ICC-22. If no packets are shown the sender has not sent any weather packets the latest 10 day(s).
| Time | Temp. | Humidity | Pressure | Rain* | Wind** | Luminosity | Snow |
|---|---|---|---|---|---|---|---|
| 1777779674 | 9.44° C | 89% | 1016 hPa | 0 mm | - | - | - |
| 1777778534 | 10° C | 82% | 1014 hPa | 0 mm | - | - | - |
| 1777778474 | 10° C | 82% | 1014 hPa | 0 mm | - | - | - |
| 1777777333 | 9.44° C | 91% | 1015 hPa | 0 mm | - | - | - |
| 1777777273 | 9.44° C | 91% | 1015 hPa | 0 mm | - | - | - |
| 1777776133 | 10° C | 82% | 1015 hPa | 0 mm | - | - | - |
| 1777776073 | 10° C | 82% | 1015 hPa | 0 mm | - | - | - |
| 1777774932 | 9.44° C | 87% | 1013 hPa | 0 mm | - | - | - |
| 1777774872 | 9.44° C | 87% | 1013 hPa | 0 mm | - | - | - |
| 1777773732 | 9.44° C | 83% | 1014 hPa | 0 mm | - | - | - |
| 1777773672 | 9.44° C | 83% | 1014 hPa | 0 mm | - | - | - |
| 1777772531 | 10.56° C | 82% | 1014 hPa | 0 mm | - | - | - |
| 1777772471 | 10.56° C | 82% | 1014 hPa | 0 mm | - | - | - |
| 1777771331 | 9.44° C | 83% | 1013 hPa | 0 mm | - | - | - |
| 1777771271 | 9.44° C | 83% | 1013 hPa | 0 mm | - | - | - |
| 1777770131 | 10° C | 83% | 1014 hPa | 0 mm | - | - | - |
| 1777770071 | 10° C | 83% | 1014 hPa | 0 mm | - | - | - |
| 1777768930 | 10° C | 82% | 1014 hPa | 0 mm | - | - | - |
| 1777768870 | 10° C | 82% | 1014 hPa | 0 mm | - | - | - |
| 1777767730 | 11.11° C | 82% | 1012 hPa | 0 mm | - | - | - |
| 1777767669 | 11.11° C | 82% | 1012 hPa | 0 mm | - | - | - |
| 1777766529 | 10° C | 83% | 1013 hPa | 1.27 mm | - | - | - |
| 1777766469 | 10° C | 83% | 1013 hPa | 1.27 mm | - | - | - |
| 1777765329 | 10.56° C | 83% | 1013 hPa | 1.78 mm | - | - | - |
| 1777765269 | 10.56° C | 83% | 1013 hPa | 1.78 mm | - | - | - |
* Rain latest hour (hover to see other rain measurements)
** Current wind speed in m/s (hover to see current wind gust speed)